Regional Weather Roundup
Issued by NWS Northern Indiana

Home | Current Version | Previous Version | Text Only | Print | Product List | Glossary Off
Versions: 1 2 3 4 5 6 7 8 9 10 11 12 13 14 15 16 17 18 19 20 21 22 23 24 25 26 27 28 29 30 31 32 33 34 35 36 37 38 39 40 41 42 43 44 45 46 47 48 49 50

000
ASUS43 KIWX 210900
RWRIWX

KIWX WEATHER ROUNDUP
NATIONAL WEATHER SERVICE NORTHERN INDIANA
500 AM EDT SUN SEP 21 2014

NOTE: "FAIR" INDICATES FEW OR NO CLOUDS BELOW 12,000 FEET WITH NO
SIGNIFICANT WEATHER AND/OR OBSTRUCTIONS TO VISIBILITY.

* THESE STATIONS ARE NOT UNDER NWS QUALITY CONTROL. THEY ALSO MAY NOT
  REPORT WEATHER SUCH AS PRECIPITATION OR FOG.

INZ001>027-211000-
NORTHERN INDIANA

CITY           SKY/WX    TMP DP  RH WIND       PRES   REMARKS
VALPARAISO     PTCLDY    64  58  80 W17G24    29.76R
KNOX*          CLOUDY    67  62  85 W12G21    29.74R
SOUTH BEND     PTCLDY    65  59  81 W15       29.73R
GOSHEN         MOCLDY   N/A N/A N/A W16G25    29.71S
WARSAW*        CLOUDY    68  66  94 W9        29.72F
ANGOLA*        CLOUDY    68  59  73 W13       29.67F
FORT WAYNE     CLOUDY    69  67  93 W15       29.73F
PERU/GRISSOM   MOCLDY    69  69 100 W15       29.75F

$$
INZ028>050-211000-
CENTRAL INDIANA

CITY           SKY/WX    TMP DP  RH WIND       PRES   REMARKS
LAFAYETTE      PTCLDY    68  67  96 W8        29.78S
KOKOMO*        MOCLDY    70  64  83 W14G22    29.77F
MUNCIE*        CLOUDY    70  66  87 SW12      29.78F
INDIANAPOLIS   CLOUDY    69  66  90 SW15      29.82S

$$
MIZ043>046-050>051-056>058-064>065-071>073-077>080-211000-
SOUTHWEST LOWER MICHIGAN

CITY           SKY/WX    TMP DP  RH WIND       PRES   REMARKS
BATTLE CREEK   CLOUDY    64  60  87 W13       29.65F
BENTON HARBOR  PTCLDY    63  59  87 W20G29    29.71R
COLDWATER*     CLOUDY    69  67  94 W15G23    29.65F
HILLSDALE*     LGT RAIN  68  68 100 SW9G17    29.64F
HOLLAND        PTCLDY    63  59  87 W14G23    29.66R
GRAND RAPIDS   CLOUDY    63  63 100 W17       29.63S
KALAMAZOO      MOCLDY    65  62  90 W14       29.67R
STURGIS*       CLOUDY    66  64  94 W17       29.68R
THREE RIVERS*  CLOUDY    68  65  91 W13G21    29.68R

$$
OHZ001>008-015>018-024>025-211000-
NORTHWEST OHIO

CITY           SKY/WX    TMP DP  RH WIND       PRES   REMARKS
DEFIANCE       MOCLDY   N/A N/A N/A SW12G21   29.69F
FINDLAY        CLOUDY    70  66  87 SW15G22   29.70F
TOLEDO EXPRESS MOCLDY    66  64  93 SW14      29.66F
TOLEDO METCALF MOCLDY    68  64  87 SW12      29.67F
LIMA           CLOUDY    70  66  87 SW14G20   29.74F FOG

$$
AND FOR LAKE MICHIGAN COASTAL AND OPEN LAKE BUOY OBSERVATIONS

STATION/POSITION TEMP    WIND        PRES    VSBY  WAVE
                 AIR SEA DIR/SP/G                  HT/PER
                 (F)     (DEG/KT/KT) (MB)    (MI)  (FT/S)
CALUMET HARBOR    64     270/  6/ 16 1006.5R
MICHIGAN CITY     67     230/ 25/ 31   N/A
SAINT JOSEPH      66     260/ 20     1007.1R
SOUTH LAKE BUOY   63 63  270/ 17/ 21 1004.5R         2/ 4
4 MI NW BRIDGMAN  66 65  290/ 23/ 31   N/A           5/ 4
MICHIGAN CITY     66 66  300/ 21/ 27   N/A           5/ 4

$$
&&


USA.gov is the U.S. government's official web portal to all federal, state and local government web resources and services.